DW9768 Weather Reports


Display with metric or nautical units.
time (UTC)temp
F
wind
direction
speed
MPH
gust
MPH
rain 1hr
in
rain 24hr
in
rain mn
in
humidity
%
barometer
mb
20260506090041 43 299 2.0 8.0 0.00 0.00 0.00 67 1015.3
20260506084540 43 340 4.0 8.0 0.00 0.00 0.00 72 1015.2
20260506083042 43 331 3.0 8.0 0.00 0.00 0.00 70 1015.2
20260506081539 42 281 4.0 7.0 0.00 0.00 0.00 68 1015.2
20260506073036 43 196 2.0 4.0 0.00 0.00 0.00 66 1015.1
20260506071536 44 129 1.0 4.0 0.00 0.00 0.00 65 1014.9
20260506061528 43 92 1.0 2.0 0.00 0.00 0.00 69 1014.9
20260506044512 37 346 0.0 0.0 0.00 0.00 0.00 81 1014.6
20260506043011 36 346 0.0 0.0 0.00 0.00 0.00 81 1014.6
20260506041510 36 346 0.0 0.0 0.00 0.00 0.00 80 1014.5
20260506040010 36 346 0.0 0.0 0.00 0.00 0.00 80 1014.4
20260506034509 36 335 0.0 0.0 0.00 0.00 0.00 82 1014.4
20260506033007 35 335 0.0 0.0 0.00 0.00 0.00 82 1014.5
20260506031508 35 335 0.0 0.0 0.00 0.00 0.00 80 1014.5
20260506030005 35 340 0.0 0.0 0.00 0.00 0.00 80 1014.6
20260506024505 36 333 0.0 0.0 0.00 0.00 0.00 80 1014.6
20260506023007 36 333 0.0 0.0 0.00 0.00 0.00 79 1014.6
20260506021504 36 5 0.0 0.0 0.00 0.00 0.00 80 1014.6
20260506020002 35 9 0.0 0.0 0.00 0.00 0.00 80 1014.6
20260506014501 35 331 0.0 0.0 0.00 0.00 0.00 79 1014.7
20260506013106 36 331 0.0 0.0 0.00 0.00 0.00 79 1014.7
20260506011623 36 333 0.0 0.0 0.00 0.00 0.00 79 1014.6
20260506010106 36 328 0.0 0.0 0.00 0.00 0.00 79 1014.7
20260506004554 37 328 0.0 0.0 0.00 0.00 0.00 79 1014.7
20260506003055 37 338 1.0 3.0 0.00 0.00 0.00 79 1014.7
20260506001550 37 323 0.0 0.0 0.00 0.00 0.00 78 1014.8
20260506000057 38 328 2.0 4.0 0.00 0.00 0.00 78 1014.7
20260505234548 38 324 1.0 3.0 0.00 0.00 0.00 78 1014.7
20260505233046 38 330 1.0 4.0 0.00 0.00 0.00 77 1014.7
20260505231545 38 322 0.0 0.0 0.00 0.00 0.00 77 1014.7
20260505230043 38 322 0.0 0.0 0.00 0.00 0.00 77 1014.6
20260505224542 38 322 0.0 0.0 0.00 0.00 0.00 76 1014.7
20260505223039 38 322 0.0 0.0 0.00 0.00 0.00 75 1014.7
20260505221541 38 322 0.0 0.0 0.00 0.00 0.00 75 1014.7
20260505220048 38 321 0.0 0.0 0.00 0.00 0.00 74 1014.7
20260505214534 38 313 0.0 0.0 0.00 0.00 0.00 73 1014.7
20260505213037 39 309 0.0 0.0 0.00 0.00 0.00 72 1014.7
20260505211538 39 314 0.0 3.0 0.00 0.00 0.00 71 1014.6
20260505210036 40 339 2.0 6.0 0.00 0.00 0.00 70 1014.6
20260505204530 40 294 3.0 7.0 0.00 0.00 0.00 68 1014.6
20260505203030 41 296 3.0 9.0 0.00 0.00 0.00 68 1014.5
20260505201629 41 264 3.0 8.0 0.00 0.00 0.00 69 1014.7
20260505200028 41 311 2.0 6.0 0.00 0.00 0.00 71 1014.7
20260505194527 41 301 2.0 8.0 0.00 0.00 0.00 69 1014.6
20260505193034 41 298 3.0 10.0 0.00 0.00 0.00 67 1014.5
20260505191525 42 313 4.0 8.0 0.00 0.00 0.00 68 1014.4
20260505190023 42 289 6.0 12.0 0.00 0.00 0.00 68 1014.2
20260505184523 43 330 3.0 10.0 0.00 0.00 0.00 65 1014.1
20260505183031 43 329 4.0 11.0 0.00 0.00 0.00 66 1014.0
20260505181520 43 318 3.0 10.0 0.00 0.00 0.00 63 1014.1
20260505180021 43 321 4.0 9.0 0.00 0.00 0.00 60 1014.0
20260505174519 44 286 4.0 12.0 0.00 0.00 0.00 62 1014.0
20260505173019 43 269 4.0 14.0 0.00 0.00 0.00 70 1013.9
20260505171519 44 317 9.0 13.0 0.00 0.00 0.00 70 1014.0
20260505170020 44 312 8.0 14.0 0.00 0.00 0.00 61 1013.9
20260505164517 44 342 6.0 12.0 0.00 0.00 0.00 61 1013.9
20260505163017 43 275 4.0 10.0 0.00 0.00 0.00 69 1013.9
20260505161516 44 245 8.0 13.0 0.00 0.00 0.00 63 1013.9
20260505153012 45 289 7.0 17.0 0.00 0.01 0.00 65 1013.9
20260505151511 44 323 8.0 14.0 0.00 0.01 0.00 64 1014.0
20260505124609 41 257 8.0 14.0 0.00 0.01 0.00 79 1014.2
20260505123059 42 294 12.0 18.0 0.00 0.01 0.00 77 1014.2
20260505121553 43 292 7.0 13.0 0.00 0.01 0.00 70 1014.0
20260505114652 42 227 5.0 10.0 0.00 0.01 0.00 68 1013.9
20260505113109 42 249 6.0 10.0 0.00 0.01 0.00 68 1013.9
20260505111547 42 246 4.0 9.0 0.00 0.01 0.00 66 1013.8
20260505101542 40 262 4.0 8.0 0.00 0.01 0.00 74 1013.7
20260505100040 40 264 6.0 10.0 0.00 0.01 0.00 75 1013.7
20260505094539 40 263 6.0 10.0 0.00 0.01 0.00 74 1013.8
20260505093038 40 297 6.0 11.0 0.00 0.01 0.00 74 1013.9